Terminal Aerodrome Forecast
Issued by NWS Wilmington, OH

Home | Current Version | Previous Version | Text Only | Print | Product List | Glossary On
Versions: 1 2 3 4 5 6 7 8 9 10 11 12 13 14 15 16 17 18 19 20 21 22 23 24 25 26 27
000
FTUS41 KILN 050054 AAA
TAFCVG
TAF AMD
KCVG 050054Z 0501/0606 05010KT P6SM VCTS BKN050CB
      TEMPO 0501/0503 01022G36KT 2SM +TSRA OVC020CB
     FM050400 VRB03KT P6SM BKN090
     FM050900 VRB03KT 5SM BR SKC
     FM051300 13004KT P6SM SCT040
     FM052000 09005KT P6SM VCTS BKN050CB
     FM060000 07005KT P6SM SCT050 BKN250=

USA.gov is the U.S. government's official web portal to all federal, state and local government web resources and services.